Current weather by "City, St" or "zip code"  
 

Current Conditions: Bluefield, Mercer County Airport, WV

Overcast


61.0 F

Last Updated on Sep 18 2020, 11:52 am EDT
Humidity: 84%
Wind Speed: NW 6.9 mph
Barometer 30.11 in
Dewpoint: 55.9 F
Visibility: 10.00 mi
Precip: --
Heat Index: NA
Wind Chill: 60 F
Current conditions at:

Bluefield, Mercer County Airport, WV (KBLF)

Lat: 37.29583 Lon: 81.20778

Local Radar Image active severe weather and emergency alerts image image weather storm and storm spotter reports image weather observation monitoring service image
Local
Radar
Active
Alerts
Storm Reports Obs
Monitoring

Sign-up For Email & Text Message Weather Alert Notification Services



Advertise Here

Observation History for Bluefield, Mercer County Airport, WV


Time Wind
(mph)
Vis
(mi)
Weather Precip (in) Temperature (F) Relative
Humidity
Wind
Chill
(F)
Heat
Index
(F)
Pressure
Air Dwpt altimeter
(in)
sea level
(mb)
Rmks
11:52 am EDT NW 6.9 10.00 Overcast -- 61.0 55.9 84% 60 NA 30.11 1017.3
10:52 am EDT N 4.6 10.00 Overcast -- 60.0 55.9 86% 60 NA 30.10 1017.1
9:52 am EDT N 5.8 10.00 Overcast -- 59.0 55.9 90% 58 NA 30.08 1016.6
8:52 am EDT 3.5 10.00 Mostly Cloudy -- 58.0 57.0 97% NA NA 30.06 1016.1
7:52 am EDT 3.5 10.00 Mostly Cloudy -- 58.0 57.9 100% NA NA 30.05 1015.6
6:52 am EDT N 5.8 9.00 Overcast -- 59.0 59.0 100% 58 NA 30.02 1014.3
5:52 am EDT 5.8 10.00 Overcast -- 59.0 59.0 100% 58 NA 30.01 1014.1
4:52 am EDT N 3.5 10.00 Overcast -- 59.0 59.0 100% NA NA 29.99 1013.5
3:52 am EDT N 4.6 10.00 Overcast -- 59.0 59.0 100% 59 NA 29.99 1013.4
2:52 am EDT N 0.0 10.00 Overcast -- 59.0 59.0 100% NA NA 29.99 1013.5
1:52 am EDT NE 4.6 10.00 Overcast -- 59.0 59.0 100% 59 NA 29.99 1013.4
12:52 am EDT NE 5.8 10.00 Overcast -- 59.0 59.0 100% 58 NA 30.00 1013.8
11:52 pm EDT NE 5.8 10.00 Overcast -- 59.0 59.0 100% 58 NA 30.00 1013.9
10:52 pm EDT NE 5.8 10.00 Overcast Trace 59.0 59.0 100% 58 NA 30.01 1014.2
9:52 pm EDT NE 5.8 1.00 Light Rain Fog/Mist 00.01 59.0 59.0 100% 58 NA 30.01 1014.1
8:52 pm EDT NE 3.5 0.25 Fog 00.01 58.0 57.9 100% NA NA 30.00 1014.2
7:52 pm EDT N 0.0 0.50 Light Rain Fog 00.01 58.0 57.9 100% NA NA 29.99 1013.7
6:52 pm EDT N 0.0 1.25 Light Rain Fog/Mist 00.01 58.0 57.9 100% NA NA 29.99 1013.7
5:52 pm EDT NE 5.8 5.00 Light Rain Fog/Mist 00.02 57.0 57.0 100% 56 NA 29.97 1013.1
4:52 pm EDT 4.6 0.50 Light Rain Fog 00.04 57.0 57.0 100% 57 NA 29.97 1013.1
3:52 pm EDT 4.6 1.50 Light Rain Fog/Mist 00.05 57.0 57.0 100% 57 NA 29.99 1013.8
2:52 pm EDT E 4.6 7.00 Light Rain 00.06 58.0 57.9 100% 58 NA 30.02 1014.8
1:52 pm EDT 3.5 6.00 Light Rain Fog/Mist 00.08 57.0 57.0 100% NA NA 30.04 1015.6
12:52 pm EDT 4.6 6.00 Light Rain Fog/Mist 00.05 58.0 57.9 100% 58 NA 30.06 1015.9

Regional Weather Observation


Bluefield, Mercer County Airport, WV (KBLF)

Overcast
61.0 F

Beckley, Raleigh County Memorial Airport, WV (KBKW)

Fog/Mist
59.0 F

Tazewell County Airport, VA (KJFZ)

Overcast
60.0 F

Dublin / New River Valley, VA (KPSK)

Mostly Cloudy
70.0 F

Marion / Wytheville, VA (KMKJ)

Partly Cloudy
68.0 F

Virginia Tech Airport, VA (KBCB)

Overcast
68.0 F